Weather in Algeciras

Spain     36°08′26″N   5°27′12″W
temp.,
°C
wind,
m/s
gust,
m/s
humid.,
%
clouds,
%
prec.,
mm/h
press.,
hPa
HPBL,
m
11 april, sun
sun1123:00+12wnw119799 0.0 101511
02:00+11w11965 0.0 101511
05:00+11wnw219740 0.0 101518
08:00+11w119832 0.0 101520
11:00+16w368282 0.1 1016802
14:00+20wsw466122 0.3 10161343
17:00+20wsw565942 0.1 10151431
20:00+17w35745 0.1 1016434
12 april, mon
mon1223:00+13w239830 0.0 101862
02:00+12wnw239815 0.0 101961
05:00+11wnw2297100 0.0 101835
08:00+11wnw1194100 0.0 101813
11:00+18e246396 0.0 1020459
14:00+19e6864100 0.0 1020915
17:00+16e61079100 0.1 1020703
20:00+14ese5108896 0.1 1021740
13 april, tue
tue1323:00+14e6119699 0.2 1023888
02:00+13e71294100 0.4 1023875
05:00+13e71292100 0.1 1022961
08:00+13e71295100 0.3 1022974
11:00+14e81287100 0.2 1023968
14:00+17e91370100 0.3 10221110
17:00+17e8136498 0.0 10201066
20:00+14e7137647 0.0 1020902
14 april, wed
wed1423:00+13e71482100 0.0 1021855
02:00+13e81484100 0.0 1020931
05:00+13e81478100 0.0 1019944
08:00+13e81480100 0.0 1018982
11:00+15e91576100 0.0 10181043
14:00+15ese81376100 0.1 10171030
17:00+12e71395100 1.6 1015867
20:00+11e51297100 6.7 1016767
15 april, thu
thu1523:00+11e71499100 4.9 1016813
02:00+12e61198100 10.9 1015829
05:00+12e51199100 5.4 1012935
08:00+12ese61298100 10.3 1012984
11:00+12ese61298100 6.3 10131027
14:00+11ese51297100 13.1 10121054
17:00+12ese51197100 1.8 1011864
20:00+11ese51197100 3.3 1011880